Probability
0 0 0 0 0 3 3 3 3 3 3 3 0 0 0 0 0 0 0 0 0 0 0 0 0 0 0 0 0 0 0 0 0 0 0 0 0 0 0 0 0 0 0
0 0 0 0 0 3 3 3 3 3 3 0 0 0 0 0 0 0 0 0 0 0 0 0 0 0 0 0 0 0 0 0 0 0 0 0 0 0 0 0 0 0 0
0 0 0 0 0 0 0 0 0 3 0 0 0 0 0 0 0 0 0 0 0 0 0 0 0 0 0 0 0 0 0 0 0 0 0 0 0 0 0 0 0 0 0
0 0 0 0 0 0 0 0 0 0 0 0 0 0 0 0 0 0 0 0 0 0 0 0 0 0 0 0 0 0 0 0 0 0 0 0 0 0 0 0 0 0 0
0 0 0 0 0 0 0 0 0 0 0 0 0 0 0 0 0 0 0 0 0 0 0 0 0 0 0 0 0 0 0 0 0 0 0 0 0 0 0 0 0 0 0
0 0 0 0 0 0 0 0 0 0 0 0 0 0 0 0 0 0 0 0 0 0 0 0 0 0 0 0 0 0 0 0 0 0 0 0 0 0 0 0 0 0 0
0 0 0 0 0 0 0 0 0 0 0 0 0 0 0 0 0 0 0 0 0 0 0 0 0 0 0 0 0 0 0 0 0 0 0 0 0 0 0 0 0 0 0
0 0 0 0 0 0 0 0 0 0 0 0 0 0 0 0 0 0 0 0 0 0 0 0 0 0 0 0 0 0 0 0 0 0 0 0 0 0 0 0 0 0 0
0 0 0 0 0 0 0 0 0 0 0 0 0 0 0 0 0 0 0 0 0 0 0 0 0 0 0 0 0 0 0 0 0 0 0 0 0 0 0 0 0 0 0
0 0 0 0 0 0 0 0 0 0 0 0 0 0 0 0 0 0 0 0 0 0 0 0 0 0 0 0 0 0 0 0 0 0 0 0 0 0 0 0 0 0 0
0 0 0 0 0 0 0 0 0 0 0 0 0 0 0 0 0 0 0 0 0 0 0 0 0 0 0 0 0 0 0 0 0 0 0 0 0 0 0 0 0 0 0
0 0 0 0 0 0 0 0 0 0 0 0 0 0 0 0 0 0 0 0 0 0 0 0 0 0 0 0 0 0 0 0 0 0 0 0 0 0 0 0 0 0 0
0 0 0 0 0 0 0 0 0 0 0 0 0 0 0 0 0 0 0 0 0 0 0 0 0 0 0 0 0 0 0 0 0 0 0 0 0 0 0 0 0 0 0
0 0 0 0 0 0 0 0 0 0 0 0 0 0 0 0 0 0 0 0 0 0 0 0 0 0 0 0 0 0 0 0 0 0 0 0 0 0 0 0 0 0 0
0 0 0 0 0 0 0 0 0 0 0 0 0 0 0 0 0 0 0 0 0 0 0 0 0 0 0 0 0 0 0 0 0 0 0 0 0 0 0 0 0 0 0
0 0 0 0 0 0 0 0 0 0 0 0 0 0 0 0 0 0 0 0 0 0 0 0 0 0 0 0 0 0 0 0 0 0 0 0 0 0 0 0 0 0 0
0 0 0 0 0 0 0 0 0 0 0 0 0 0 0 0 0 0 0 0 0 0 0 0 0 0 0 0 0 0 0 0 0 0 0 0 0 0 0 0 0 0 0
0 0 0 0 0 0 0 0 0 0 0 0 0 0 0 0 0 0 0 0 0 0 0 0 0 0 0 0 0 0 0 0 0 0 0 0 0 0 0 0 0 0 0
0 0 0 0 0 0 0 0 0 0 0 0 0 0 0 0 0 0 0 0 0 0 0 0 0 0 0 0 0 0 0 0 0 0 0 0 0 0 0 0 0 0 0
0 0 0 0 0 0 0 0 0 0 0 0 0 0 0 0 0 0 0 0 0 0 0 0 0 0 0 0 0 0 0 0 0 0 0 0 0 0 0 0 0 0 0
0 0 0 0 0 0 0 0 0 0 0 0 0 0 0 0 0 0 0 0 0 0 0 0 0 0 0 0 0 0 0 0 0 0 0 0 0 0 0 0 0 0 0
0 0 0 0 0 0 0 0 0 0 0 0 0 0 0 0 0 0 0 0 0 0 0 0 0 0 0 0 0 0 0 0 0 0 0 0 0 0 0 0 0 0 0
0 0 0 0 0 0 0 0 0 0 0 0 0 0 0 0 0 0 0 0 0 0 0 0 0 0 0 0 0 0 0 0 0 0 0 0 0 0 0 0 0 0 0
0 0 0 0 0 0 0 0 0 0 0 0 0 0 0 0 0 0 0 0 0 0 0 0 0 0 0 0 0 0 0 0 0 0 0 0 0 0 0 0 0 0 0
0 0 0 0 0 0 0 0 0 0 0 0 0 0 0 0 0 0 0 0 0 0 0 0 0 0 0 0 0 0 0 0 0 0 0 0 0 0 0 0 0 0 0
0 0 0 0 0 0 0 0 0 0 0 0 0 0 0 0 0 0 0 0 0 0 0 0 0 0 0 0 0 0 0 0 0 0 0 0 0 0 0 0 0 0 0
Height
5686 5687 5687 5687 5688 5690 5692 5695 5697 5699 5702 5705 5708 5710 5713 5715 5719 5723 5727 5732 5737 5742 5746 5751 5755 5759 5763 5767 5770 5773 5776 5779 5782 5785 5787 5790 5792 5795 5797 5799 5802 5804 5806
5674 5675 5675 5675 5676 5678 5681 5683 5686 5688 5691 5694 5697 5700 5702 5705 5709 5712 5717 5721 5727 5731 5736 5741 5745 5750 5754 5757 5760 5764 5767 5770 5773 5776 5779 5781 5785 5787 5790 5792 5795 5797 5799
5662 5662 5663 5663 5664 5666 5669 5672 5674 5677 5680 5682 5685 5688 5690 5693 5698 5702 5706 5711 5716 5721 5726 5731 5735 5739 5743 5747 5750 5754 5757 5761 5764 5767 5770 5773 5776 5779 5782 5784 5787 5789 5791
5650 5651 5651 5651 5653 5655 5657 5660 5663 5665 5668 5671 5674 5676 5679 5683 5687 5692 5696 5700 5705 5711 5715 5720 5725 5729 5733 5736 5740 5744 5747 5751 5754 5757 5760 5764 5767 5770 5773 5776 5778 5781 5783
5640 5640 5640 5640 5642 5644 5646 5648 5651 5654 5656 5659 5662 5665 5668 5671 5676 5680 5685 5689 5694 5699 5704 5709 5713 5718 5722 5726 5729 5733 5737 5740 5744 5747 5750 5753 5757 5760 5763 5766 5769 5772 5774
5629 5629 5628 5629 5631 5633 5634 5637 5640 5642 5645 5647 5650 5654 5657 5660 5664 5669 5673 5678 5683 5688 5692 5697 5702 5706 5710 5714 5718 5722 5726 5730 5733 5736 5740 5743 5746 5750 5752 5755 5758 5761 5764
5618 5618 5618 5620 5621 5622 5623 5626 5628 5631 5633 5636 5639 5642 5645 5649 5653 5657 5661 5666 5670 5675 5680 5684 5689 5694 5699 5702 5706 5711 5715 5719 5722 5726 5729 5732 5736 5739 5742 5745 5748 5751 5754
5608 5609 5610 5610 5611 5612 5613 5615 5617 5620 5622 5625 5628 5631 5634 5637 5641 5645 5649 5654 5658 5663 5667 5671 5676 5681 5686 5690 5694 5699 5703 5707 5711 5714 5718 5721 5725 5728 5731 5734 5737 5740 5743
5599 5600 5600 5601 5601 5602 5603 5604 5606 5608 5611 5614 5617 5620 5623 5626 5629 5633 5636 5641 5645 5650 5654 5659 5663 5667 5672 5677 5681 5686 5691 5695 5699 5703 5706 5710 5714 5717 5720 5724 5727 5730 5732
5590 5590 5590 5591 5591 5592 5593 5594 5595 5597 5600 5603 5606 5609 5612 5615 5618 5621 5625 5628 5633 5637 5641 5646 5650 5654 5659 5663 5669 5674 5678 5682 5687 5691 5694 5698 5702 5705 5709 5712 5716 5718 5722
5580 5580 5581 5581 5582 5582 5583 5584 5585 5587 5589 5592 5595 5597 5600 5603 5606 5609 5612 5616 5620 5624 5628 5632 5637 5641 5646 5650 5655 5660 5665 5670 5674 5678 5683 5686 5690 5693 5697 5700 5704 5707 5710
5571 5571 5571 5571 5572 5572 5573 5574 5575 5576 5578 5580 5583 5586 5588 5591 5594 5597 5600 5604 5607 5611 5615 5619 5623 5628 5632 5637 5642 5647 5652 5657 5662 5666 5670 5674 5677 5681 5685 5689 5692 5695 5698
5562 5561 5561 5561 5561 5562 5562 5563 5564 5565 5566 5568 5571 5574 5576 5579 5582 5585 5588 5592 5595 5599 5602 5606 5610 5615 5619 5624 5628 5633 5638 5643 5648 5653 5657 5661 5664 5669 5672 5676 5680 5683 5686
5552 5551 5551 5550 5550 5551 5551 5552 5553 5553 5555 5557 5559 5562 5565 5568 5571 5574 5577 5580 5583 5586 5590 5594 5597 5602 5606 5610 5615 5620 5624 5629 5634 5639 5643 5647 5651 5656 5659 5663 5667 5670 5674
5542 5541 5541 5540 5539 5539 5540 5540 5541 5542 5543 5545 5547 5550 5553 5556 5559 5562 5565 5568 5571 5574 5577 5581 5584 5589 5593 5597 5602 5606 5611 5615 5620 5625 5629 5633 5638 5642 5646 5650 5654 5657 5660
5533 5532 5531 5530 5529 5528 5529 5528 5529 5530 5531 5533 5535 5538 5541 5544 5547 5550 5553 5556 5558 5561 5565 5568 5572 5575 5579 5584 5588 5592 5597 5601 5606 5611 5615 5620 5624 5628 5632 5636 5640 5644 5647
5522 5521 5520 5519 5519 5518 5518 5518 5518 5519 5520 5521 5523 5526 5529 5533 5535 5538 5541 5544 5546 5549 5552 5555 5559 5562 5566 5570 5574 5578 5582 5587 5592 5596 5601 5606 5610 5614 5618 5622 5626 5629 5633
5513 5511 5510 5510 5509 5508 5507 5507 5507 5507 5509 5510 5513 5515 5518 5522 5524 5527 5530 5532 5535 5537 5540 5542 5546 5549 5552 5556 5560 5564 5568 5572 5577 5582 5587 5592 5596 5600 5604 5608 5611 5615 5619
5503 5502 5501 5500 5499 5498 5498 5498 5497 5498 5498 5500 5502 5504 5508 5511 5514 5516 5519 5521 5524 5526 5527 5530 5533 5536 5540 5543 5547 5550 5554 5559 5564 5568 5573 5577 5582 5587 5591 5594 5598 5602 5605
5494 5492 5491 5490 5489 5489 5488 5488 5488 5488 5488 5490 5492 5494 5497 5500 5503 5506 5508 5510 5513 5515 5516 5519 5521 5524 5527 5531 5534 5538 5542 5546 5550 5555 5559 5564 5568 5572 5575 5579 5584 5588 5591
5485 5484 5482 5481 5480 5480 5479 5478 5478 5478 5480 5481 5483 5485 5487 5490 5493 5495 5498 5500 5502 5504 5506 5508 5510 5513 5516 5519 5522 5526 5530 5533 5537 5541 5545 5550 5554 5558 5561 5565 5570 5574 5577
5477 5475 5474 5473 5472 5471 5470 5470 5470 5470 5471 5473 5475 5476 5478 5481 5483 5486 5488 5490 5492 5494 5496 5498 5500 5503 5506 5508 5511 5515 5518 5521 5525 5528 5533 5537 5541 5544 5548 5552 5556 5559 5562
5469 5467 5466 5465 5464 5463 5462 5462 5462 5463 5463 5465 5466 5468 5470 5472 5474 5476 5478 5480 5482 5484 5486 5489 5491 5493 5495 5498 5500 5503 5506 5509 5513 5516 5520 5524 5528 5532 5535 5539 5543 5545 5548
5461 5460 5459 5458 5457 5455 5455 5454 5454 5455 5456 5457 5458 5460 5462 5464 5466 5467 5469 5471 5473 5475 5477 5479 5481 5483 5485 5487 5489 5491 5494 5497 5500 5504 5507 5511 5514 5518 5523 5526 5529 5532 5535
5453 5452 5451 5450 5449 5448 5448 5447 5447 5447 5448 5450 5451 5452 5453 5455 5457 5458 5459 5461 5463 5465 5467 5469 5471 5473 5475 5476 5478 5480 5483 5486 5489 5492 5495 5499 5502 5506 5510 5513 5517 5520 5522
5445 5444 5443 5443 5442 5441 5440 5440 5439 5440 5441 5442 5443 5444 5445 5447 5449 5450 5451 5452 5454 5457 5458 5460 5462 5463 5465 5467 5468 5470 5472 5475 5478 5481 5484 5488 5491 5495 5498 5501 5504 5507 5510
Wind_Speed
39 39 39 40 41 42 40 40 40 40 41 41 41 41 41 42 42 42 43 44 43 43 43 42 41 41 40 39 39 38 37 36 36 35 34 34 33 32 31 31 31 30 29
38 39 39 40 41 41 41 40 40 40 41 41 42 42 42 43 44 43 43 44 45 45 44 44 43 42 42 41 40 39 39 38 38 37 36 35 34 34 33 32 32 32 31
38 38 39 39 41 41 41 40 40 40 42 42 42 43 43 43 44 45 44 45 45 45 45 45 44 44 43 43 42 41 40 40 39 39 38 37 36 35 35 34 33 33 34
37 37 38 38 39 40 40 39 40 41 42 42 42 42 43 44 44 45 45 46 46 47 46 45 46 45 44 43 44 43 41 41 40 40 39 39 38 37 37 37 36 35 35
35 36 36 37 38 39 40 40 40 40 41 42 42 42 42 44 45 47 47 47 47 48 48 46 46 46 45 45 44 43 43 41 40 41 41 40 40 40 39 38 37 37 37
34 35 36 35 36 38 38 40 40 41 41 42 43 44 43 44 45 47 48 48 49 49 49 48 47 47 47 46 46 45 44 44 43 42 42 42 41 41 40 40 39 38 38
34 34 34 34 34 35 37 39 40 40 40 42 42 44 43 44 45 46 48 49 50 50 50 51 50 49 49 48 48 47 46 46 45 44 43 43 42 41 41 40 39 39 38
33 32 32 33 33 34 36 38 39 40 40 41 41 43 43 45 46 46 47 48 49 50 51 51 52 51 50 50 50 49 48 48 47 47 45 44 43 42 41 41 40 40 39
32 32 31 32 32 33 35 36 38 39 40 40 41 41 42 45 46 47 48 48 48 49 51 51 51 52 52 51 51 50 51 49 49 48 47 46 45 44 43 42 42 42 41
30 31 31 31 31 33 34 36 37 38 39 40 40 41 42 44 47 48 49 49 49 50 50 51 51 52 53 52 51 50 50 50 49 48 48 48 47 46 45 45 44 43 42
31 31 31 32 32 33 34 36 37 37 39 40 40 41 42 44 46 48 48 49 50 50 50 50 50 51 52 53 52 52 52 50 50 50 50 50 50 49 47 46 46 45 44
31 31 32 32 33 34 34 35 36 37 38 40 40 41 41 43 45 46 46 47 49 50 51 50 50 50 51 53 53 52 52 52 51 50 51 51 52 51 50 48 47 46 46
32 32 33 33 33 33 35 36 36 37 38 40 41 41 41 42 43 44 45 46 46 48 50 51 51 51 51 52 53 53 52 52 52 51 51 52 53 53 51 50 48 48 47
33 33 33 34 34 34 35 35 36 36 38 40 42 42 42 42 43 44 45 45 46 47 48 49 50 51 52 52 52 53 53 54 53 52 52 53 54 54 53 52 51 50 49
33 33 34 34 35 35 35 35 37 37 38 40 42 43 44 44 44 44 45 46 46 46 47 48 48 50 51 52 53 53 53 53 53 53 53 53 54 54 54 53 52 51 51
34 34 34 34 35 35 35 35 37 37 38 40 43 43 43 44 44 44 45 45 45 46 47 48 49 49 50 52 53 53 54 53 53 53 53 54 54 54 54 54 53 53 53
34 34 33 33 34 34 35 35 36 37 38 40 42 42 43 43 43 43 43 44 44 45 47 48 48 48 48 49 51 52 53 53 54 54 54 54 54 54 54 55 55 54 54
34 33 32 33 34 34 34 35 35 36 37 39 40 41 42 42 42 42 42 42 43 44 45 46 46 46 47 48 49 50 51 52 52 52 53 54 55 55 55 55 54 54 54
32 32 32 32 33 33 33 34 35 35 36 37 39 40 41 41 40 40 40 41 42 42 42 43 43 44 46 47 48 50 51 52 52 51 52 52 53 54 54 55 54 53 53
30 30 31 31 31 31 33 33 34 34 35 35 36 37 38 39 39 39 39 40 40 40 40 41 41 42 44 46 47 48 47 48 50 51 52 52 52 52 53 53 53 53 53
28 28 28 29 29 30 30 31 31 32 32 32 33 35 36 37 37 37 38 39 39 39 39 40 41 41 42 44 45 46 47 46 47 49 49 50 51 52 51 51 51 52 53
28 27 27 27 27 28 29 29 29 29 30 30 31 33 34 35 36 36 37 37 38 38 38 39 40 41 42 43 44 45 45 45 46 47 48 48 49 49 49 49 49 50 51
28 27 26 26 25 25 26 27 27 27 28 28 29 31 33 33 34 35 35 36 37 37 37 38 39 40 40 41 41 42 43 44 44 44 45 46 46 47 47 47 47 48 50
28 27 26 25 25 24 24 24 24 25 26 27 28 30 31 31 32 33 34 35 35 35 35 36 38 39 39 40 41 42 43 43 44 45 46 46 46 47 48 48 49 50 50
28 27 26 25 24 24 24 24 24 25 25 25 26 27 29 30 31 32 32 33 34 34 34 35 37 37 38 38 38 38 40 42 43 43 44 45 46 47 47 48 49 49 49
27 27 26 25 24 24 24 23 23 24 24 25 26 27 27 28 30 31 32 32 34 34 33 34 35 36 36 36 36 37 37 39 40 42 43 44 44 45 46 46 47 48 48
Wind_Direction
263 262 262 260 256 253 252 251 250 248 247 245 245 244 243 241 239 238 238 237 235 234 235 236 236 237 238 240 242 243 244 243 242 242 242 241 242 242 242 243 244 244 245
262 262 261 261 257 253 252 251 250 248 247 246 245 244 244 241 238 238 237 236 235 234 234 236 236 238 239 241 243 243 244 243 243 243 242 241 241 242 243 244 245 245 246
263 261 261 259 255 252 251 250 250 249 247 246 245 244 243 240 238 237 236 235 235 235 235 236 237 237 239 241 242 243 244 242 242 242 243 243 243 243 244 244 245 246 246
264 261 260 258 254 251 251 250 249 247 246 245 244 244 243 240 239 237 237 236 235 235 235 236 238 239 239 240 242 242 242 242 243 243 243 244 246 246 246 245 245 246 248
263 261 260 258 254 253 252 251 249 247 245 244 243 244 243 241 239 237 236 236 236 236 236 237 237 239 239 240 241 241 242 242 243 243 243 245 245 247 247 246 247 248 249
262 260 258 256 253 254 252 251 249 248 246 245 244 244 243 241 239 237 237 237 237 237 237 237 237 239 240 241 241 242 242 242 243 243 243 244 246 247 247 247 247 248 249
261 259 258 255 255 253 252 251 249 248 246 246 245 245 242 241 240 239 238 238 238 237 238 239 239 239 241 242 242 242 243 243 243 243 244 245 246 246 247 248 247 248 249
260 258 257 257 257 253 254 253 250 247 245 245 244 244 243 241 241 241 239 240 239 238 239 240 241 240 242 243 243 243 244 244 244 244 245 245 246 246 246 247 248 248 250
261 259 259 259 257 255 254 253 251 247 245 245 245 244 244 242 241 241 241 240 240 240 239 240 240 240 241 242 243 242 244 244 244 244 244 245 245 246 246 246 248 248 250
259 261 260 260 258 256 254 255 253 249 245 245 245 244 243 243 243 243 244 243 242 242 241 241 241 241 241 242 243 243 244 245 244 244 244 245 246 247 246 246 246 248 251
262 263 262 261 260 258 256 254 253 251 248 246 245 245 244 244 243 244 244 245 243 243 241 241 242 242 242 243 243 244 245 245 245 245 245 245 247 247 247 247 247 248 250
267 267 265 262 260 259 258 256 255 253 251 248 247 245 244 246 245 245 245 245 243 242 240 241 242 242 242 243 242 243 244 244 245 245 244 245 246 247 248 248 249 250 251
269 269 268 265 262 259 258 256 256 254 252 250 247 245 245 246 245 245 245 245 244 243 242 241 242 242 243 243 243 243 244 244 245 245 245 245 246 246 247 248 249 251 252
271 271 270 269 265 262 261 257 255 255 253 250 248 246 245 245 245 245 245 245 244 243 242 242 243 243 243 243 244 244 245 245 245 245 245 245 246 246 247 248 249 251 252
271 271 271 270 267 264 262 259 257 255 255 252 249 246 244 245 245 245 245 245 245 243 242 243 243 243 244 244 245 245 245 245 245 245 245 245 245 246 247 247 249 250 251
272 272 271 271 268 264 261 260 257 254 255 252 248 246 245 245 247 247 247 246 246 244 244 244 244 244 245 245 245 245 245 245 244 245 245 245 246 247 247 246 247 249 250
273 272 272 271 268 265 262 260 258 254 254 252 248 247 246 246 247 248 247 246 246 245 245 246 247 246 245 244 244 244 244 244 244 245 245 245 246 246 247 247 248 249 249
275 274 272 270 268 266 263 260 259 256 253 251 249 247 246 246 247 248 247 246 246 246 247 247 246 246 245 245 245 244 244 245 246 246 246 245 246 246 247 248 249 250 250
277 275 273 271 268 266 263 260 260 257 254 252 250 248 245 246 247 247 247 247 246 247 247 246 246 245 245 245 244 245 245 245 245 245 246 247 247 246 247 248 249 250 251
277 277 274 271 269 266 264 262 261 258 254 251 250 248 246 247 247 247 247 247 246 246 245 246 247 247 246 243 243 244 245 247 246 246 246 246 247 247 248 249 250 251 251
279 278 276 272 270 267 265 264 263 259 254 251 249 248 247 248 248 247 247 247 246 245 246 246 247 247 246 244 243 243 246 247 247 246 245 246 247 248 249 249 250 250 250
280 279 277 274 271 267 265 262 262 259 255 252 251 250 249 249 250 248 248 247 246 246 246 247 246 246 246 245 245 245 246 247 247 246 244 244 246 248 248 248 248 248 249
278 279 278 276 273 269 265 261 258 256 254 253 252 252 251 251 250 250 249 247 246 246 245 245 245 246 245 246 247 246 247 247 248 246 244 244 245 246 247 248 249 251 251
277 278 277 277 274 271 268 263 260 257 256 256 255 254 252 251 251 251 250 248 246 245 246 245 245 245 246 248 248 248 249 248 248 247 246 246 246 247 248 249 250 252 254
277 277 276 275 273 270 269 266 262 259 257 256 254 253 252 250 250 251 251 248 246 247 249 249 247 247 249 250 250 249 248 248 247 246 246 246 247 248 249 250 251 252 253
277 276 275 274 273 270 269 268 264 259 256 256 255 252 250 250 250 250 250 249 248 250 252 252 250 249 250 250 250 248 247 247 246 246 247 248 249 249 250 251 252 253 253